Find Starlink 5989

NORAD ID: 56781 Int'l Des: 2023-078 Owner: SPXS Country: US Constellation: starlink operational
LEOCIRCULAR

当前视图

正在加载3D地球...

About Starlink 5989

Starlink 5989 (NORAD 56781) is a starlink constellation satellite (v1.5) launched May 31, 2023 by SPXS of US. It operates in LEO, CIRCULAR orbit with a mass of 305.00 kg.

关于 Starlink 5989

正在加载描述...

即将过境

Passes for default location (London). Set your location on the main map for personalized predictions.

高度历史

Loading altitude history...

两行轨道根数

1 56781U 23078Q 26169.93308309 .00000786 00000-0 73672-4 0 9996
2 56781 70.0003 89.2579 0002922 271.8295 88.2530 14.98339128167848
Epoch: Jun 18, 2026 • Age: 7 hours

当前状态

高度 577.0 km
速度 7.57 km/s
星下点 -14.86°S, 78.56°W
发射日期 May 31, 2023
运行时间 3 years
类型 internet

技术详情

分类 Payload
质量 305.00 kg
干质量 290.00 kg
总质量 305.00 kg
长度 0.20 m
直径 2.80 m
跨度 9.00 m
形状 Box + pan
制造商 SPXS
平台类型 Starlink
阶段状态 In Orbit
所有者/国家 SPXS/US

Most Searched